This is the latest recevied weather packets stored in our database for station/object KC5DP. If no packets are shown the sender has not sent any weather packets the latest 10 day(s).
| Time | Temp. | Humidity | Pressure | Rain* | Wind** | Luminosity | Snow |
|---|---|---|---|---|---|---|---|
| 1777550686 | 19.44° C | 99% | 1010.8 hPa | 0 mm | - | 52 W/m² | - |
| 1777550382 | 19.44° C | 99% | 1010.9 hPa | 0 mm | - | 32 W/m² | - |
| 1777550078 | 19.44° C | 99% | 1010.6 hPa | 0 mm | - | 29 W/m² | - |
| 1777549775 | 19.44° C | 99% | 1010.4 hPa | 0 mm | - | 25 W/m² | - |
| 1777549471 | 19.44° C | 99% | 1010.4 hPa | 0 mm | - | 12 W/m² | - |
| 1777549167 | 19.44° C | 99% | 1010.4 hPa | 0 mm | - | 7 W/m² | - |
| 1777548864 | 19.44° C | 99% | 1010.4 hPa | 0 mm | - | 6 W/m² | - |
| 1777548561 | 19.44° C | 99% | 1010.5 hPa | 0 mm | - | 5 W/m² | - |
| 1777548257 | 19.44° C | 99% | 1010.5 hPa | 0 mm | - | 3 W/m² | - |
| 1777547954 | 19.44° C | 99% | 1010.6 hPa | 0 mm | - | 2 W/m² | - |
| 1777547650 | 20° C | 99% | 1010.4 hPa | 0 mm | - | 1 W/m² | - |
| 1777547347 | 20° C | 99% | 1010.5 hPa | 0 mm | - | 0 W/m² | - |
| 1777547045 | 20° C | 99% | 1010.5 hPa | 0 mm | - | 0 W/m² | - |
| 1777546741 | 20° C | 99% | 1010.3 hPa | 0 mm | - | 0 W/m² | - |
| 1777546438 | 20° C | 99% | 1010.1 hPa | 0 mm | - | 0 W/m² | - |
| 1777546136 | 20° C | 99% | 1010.2 hPa | 0 mm | - | 0 W/m² | - |
| 1777545831 | 20° C | 99% | 1009.9 hPa | 0 mm | - | 0 W/m² | - |
| 1777545529 | 20° C | 99% | 1009.8 hPa | 0 mm | - | 0 W/m² | - |
| 1777545225 | 20° C | 99% | 1009.7 hPa | 0 mm | - | 0 W/m² | - |
| 1777544923 | 20° C | 99% | 1009.9 hPa | 0 mm | - | 0 W/m² | - |
| 1777544619 | 20° C | 99% | 1009.9 hPa | 0 mm | - | 0 W/m² | - |
| 1777544315 | 20° C | 99% | 1009.8 hPa | 0 mm | - | 0 W/m² | - |
| 1777544012 | 20° C | 99% | 1009.9 hPa | 0 mm | - | 0 W/m² | - |
| 1777543709 | 20° C | 99% | 1009.7 hPa | 0 mm | - | 0 W/m² | - |
| 1777543406 | 20° C | 99% | 1009.6 hPa | 0 mm | - | 0 W/m² | - |
* Rain latest hour (hover to see other rain measurements)
** Current wind speed in m/s (hover to see current wind gust speed)